Simultaneous Nadir Overpasses (SNOs) Predictions

Prediction of SNOs between GOES-16 and NOAA-19 Satellite Orbit:

Table of predicted SNOs for the next 14.0 days since TLE Epoch: 11/4/2023
Index Date Time (GOES-16) GOES-16 Lat,Lon NOAA-19 Lat,Lon Distance(km) Time Diff (sec)
1 11/04/2023 13:57:03 -0.05, -75.22 0.21, -76.48 142.81 80
2 11/05/2023 13:44:55 -0.05, -75.23 -0.46, -73.53 194.58 80
3 11/08/2023 02:07:30 0.04, -75.22 -0.69, -78.25 347.21 80
4 11/09/2023 01:55:24 0.04, -75.23 0.04, -75.31 9.46 80
5 11/10/2023 01:40:36 0.04, -75.24 0.70, -72.36 328.68 80
6 11/12/2023 14:03:06 -0.04, -75.30 0.37, -77.08 202.29 80
7 11/13/2023 13:48:19 -0.04, -75.32 -0.32, -74.13 136.15 80
8 11/14/2023 13:36:11 -0.03, -75.33 -1.02, -71.18 474.59 80
9 11/16/2023 02:10:55 0.03, -75.32 -0.78, -78.87 404.57 80
10 11/17/2023 01:58:48 0.02, -75.33 -0.09, -75.92 66.19 80
11 11/18/2023 01:44:00 0.02, -75.35 0.59, -72.97 272.34 80
